Location: Les Salelles
(44.4192°N, 4.1044°E)
Time: 19:49:23
(UTC+00:00)

Feng Yun 1-1 Rocket - Pass Details

Date: 20 January 2021
Orbit: 830 x 933 km, 99.2° (Epoch: 28 February)

Event Time Altitude Azimuth Distance (km) Brightness Sun altitude
Rises 17:50:16 0° 164° (SSE) 3,364 7.3 -13.0°
Reaches altitude 10° 17:52:35 10° 164° (SSE) 2,439 6.6 -13.4°
Maximum altitude 17:57:59 88° 251° (WSW) 852 4.2 -14.4°
Drops below altitude 10° 18:03:33 10° 345° (NNW) 2,504 6.7 -15.3°
Sets 18:05:58 0° 346° (NNW) 3,460 7.4 -15.8°
